sat.trackr.live / text

‹ back to catalog

COSMOS 2453

NORAD 35500 · 2009-036C

PAYLOAD ACTIVE UNKNOWN

§ Identity

Operator
Country
CIS
Launch date
2009-07-06
Launch site
PLMSC
Launch vehicle
Mass (kg)
RCS (m²)
0.82

External: N2YO · Heavens-Above · Gunter

§ Orbital elements

Epoch: 2026-05-25T04:20:14.144064Z

Period
115.99 min
Inclination
82.4865°
Eccentricity
0.0005915
Mean motion
12.41519370 rev/d
Perigee alt
1,495.5 km
Apogee alt
1,504.8 km
Semi-major
7,878.3 km
B*
3.0602e-4
RAAN
102.1960°
Arg perigee
209.3465°
Mean anomaly
150.7283°
Rev number
76,512

§ Raw data

COSMOS 24531 35500U 09036C   26145.18071926  .00000051  00000+0  30602-3 0  99922 35500  82.4865 102.1960 0005915 209.3465 150.7283 12.41519370765126

JSON: /api/v1/satellites/35500 · /tle

For live sub-satellite position, see the globe view (requires WebGL).

§ Visibility from observer

Set your observer location to see the next 7 days of passes ≥ 10°. The values pass through the URL so the page stays shareable.

No JS? Fill the form by hand. The geolocation button needs JavaScript.